Weather History for Troy, MI

Change the Weather History Date:

Friday, November 8, 2013

  Actual Average (KDET) Record (KDET)
Temperature  
Mean Temperature 38 °F -  
Max Temperature 46 °F 50 °F 71 °F (1975)
Min Temperature 32 °F 37 °F 23 °F (1991)
Degree Days  
Heating Degree Days 26    
Moisture  
Dew Point 26 °F    
Average Humidity 63    
Maximum Humidity 87    
Minimum Humidity 39    
Precipitation  
Precipitation 0.00 in - - ()
Sea Level Pressure  
Sea Level Pressure 30.23 in    
Wind  
Wind Speed 7 mph (WSW)    
Max Wind Speed 12 mph    
Max Gust Speed 16 mph    
Visibility 10 miles    
Events      
Averages and records for this station are not official NWS values.
T = Trace of Precipitation, MM = Missing Value Source: NWS Daily Summary

Daily Weather History Graph

Daily Weather History Graph

Search for Another Location

Airport:

Trip Planner

Search our weather history database for the weather conditions in past years. The results will help you decide how hot, cold, wet, or windy it might be!

Date:

Astronomy

Nov. 08, 2013 Rise Set
Actual Time 7:15 AM EST 5:16 PM EST
Civil Twilight 6:45 AM EST 5:46 PM EST
Nautical Twilight 6:11 AM EST 6:20 PM EST
Astronomical Twilight 5:38 AM EST 6:53 PM EST
Moon 12:10 PM EST (11/8) 10:37 PM EST (11/8)
Length of Visible Light 11h 01m
Length of Day
10h 01m
Waxing Crescent, 33% of the Moon is Illuminated
Nov 8
Waxing Crescent
Nov 10
First Quarter
Nov 17
Full
Nov 25
Last Quarter
Dec 2
New

Hourly Weather History & Observations

Time (EST) Temp. Windchill Dew Point Humidity Pressure Visibility Wind Dir Wind Speed Gust Speed Precip Events Conditions
12:14 AM 36.5 °F 30.3 °F 28.4 °F 72% 30.12 in 10.0 mi WNW 8.1 mph - N/A   Scattered Clouds
12:35 AM 37.0 °F 30.4 °F 27.9 °F 69% 30.13 in 10.0 mi West 9.2 mph - N/A   Clear
12:54 AM 36.7 °F 30.5 °F 27.5 °F 69% 30.13 in 10.0 mi WNW 8.1 mph - N/A   Clear
1:15 AM 36.5 °F 31.0 °F 27.5 °F 70% 30.13 in 10.0 mi West 6.9 mph - N/A   Clear
1:34 AM 36.3 °F 30.8 °F 27.5 °F 70% 30.13 in 10.0 mi West 6.9 mph - N/A   Clear
1:54 AM 35.1 °F 30.1 °F 27.5 °F 74% 30.13 in 10.0 mi West 5.8 mph - N/A   Clear
2:14 AM 34.7 °F 29.6 °F 27.5 °F 75% 30.14 in 10.0 mi WSW 5.8 mph - N/A   Clear
2:34 AM 34.2 °F 26.8 °F 28.4 °F 79% 30.15 in 10.0 mi West 9.2 mph - N/A   Clear
2:55 AM 33.8 °F 27.0 °F 28.8 °F 82% 30.15 in 10.0 mi West 8.1 mph - N/A   Clear
3:14 AM 33.8 °F 27.0 °F 28.9 °F 82% 30.15 in 10.0 mi West 8.1 mph - N/A   Clear
3:35 AM 33.8 °F 27.0 °F 29.1 °F 83% 30.16 in 10.0 mi West 8.1 mph - N/A   Clear
3:54 AM 34.0 °F 28.0 °F 28.9 °F 82% 30.16 in 10.0 mi West 6.9 mph - N/A   Clear
4:14 AM 33.8 °F 27.0 °F 28.8 °F 82% 30.17 in 10.0 mi West 8.1 mph - N/A   Clear
4:35 AM 33.4 °F 25.9 °F 28.4 °F 82% 30.17 in 10.0 mi West 9.2 mph - N/A   Clear
4:54 AM 33.4 °F 26.6 °F 28.4 °F 82% 30.18 in 10.0 mi West 8.1 mph - N/A   Clear
5:15 AM 33.3 °F 27.1 °F 28.6 °F 83% 30.18 in 10.0 mi West 6.9 mph - N/A   Clear
5:34 AM 33.3 °F 27.1 °F 28.9 °F 84% 30.18 in 10.0 mi West 6.9 mph - N/A   Clear
5:55 AM 33.3 °F 27.1 °F 28.8 °F 84% 30.19 in 10.0 mi West 6.9 mph - N/A   Clear
6:14 AM 33.3 °F 27.9 °F 28.8 °F 84% 30.20 in 10.0 mi West 5.8 mph - N/A   Clear
6:34 AM 32.9 °F 26.7 °F 28.9 °F 85% 30.21 in 10.0 mi West 6.9 mph - N/A   Clear
6:54 AM 32.5 °F 26.2 °F 28.9 °F 87% 30.22 in 10.0 mi West 6.9 mph - N/A   Clear
7:14 AM 32.9 °F 27.5 °F 28.9 °F 85% 30.23 in 10.0 mi West 5.8 mph - N/A   Clear
7:34 AM 32.9 °F 27.5 °F 28.9 °F 85% 30.24 in 10.0 mi West 5.8 mph - N/A   Clear
7:54 AM 33.8 °F 28.6 °F 28.8 °F 82% 30.25 in 10.0 mi West 5.8 mph - N/A   Clear
8:14 AM 34.9 °F 30.8 °F 28.8 °F 78% 30.26 in 10.0 mi West 4.6 mph - N/A   Scattered Clouds
8:35 AM 36.5 °F 31.0 °F 29.1 °F 75% 30.26 in 10.0 mi West 6.9 mph - N/A   Mostly Cloudy
8:54 AM 37.4 °F 34.9 °F 29.1 °F 72% 30.27 in 10.0 mi West 3.5 mph - N/A   Overcast
9:14 AM 36.9 °F 32.2 °F 29.3 °F 74% 30.28 in 10.0 mi West 5.8 mph - N/A   Mostly Cloudy
9:34 AM 38.3 °F 33.2 °F 29.1 °F 70% 30.28 in 10.0 mi West 6.9 mph - N/A   Scattered Clouds
9:54 AM 39.9 °F 34.5 °F 28.4 °F 63% 30.28 in 10.0 mi West 8.1 mph - N/A   Clear
10:14 AM 41.2 °F 34.5 °F 28.4 °F 60% 30.28 in 10.0 mi WNW 11.5 mph - N/A   Clear
10:34 AM 41.7 °F 36.1 °F 27.7 °F 58% 30.28 in 10.0 mi WNW 9.2 mph - N/A   Clear
10:54 AM 41.4 °F 35.7 °F 26.8 °F 56% 30.29 in 10.0 mi WNW 9.2 mph - N/A   Clear
11:14 AM 43.7 °F 38.6 °F 27.1 °F 52% 30.29 in 10.0 mi WNW 9.2 mph - N/A   Scattered Clouds
11:34 AM 42.6 °F 37.2 °F 24.6 °F 49% 30.29 in 10.0 mi NW 9.2 mph - N/A   Scattered Clouds
11:54 AM 43.5 °F 40.1 °F 24.8 °F 48% 30.28 in 10.0 mi WNW 5.8 mph - N/A   Scattered Clouds
12:14 PM 45.0 °F 41.2 °F 24.4 °F 45% 30.27 in 10.0 mi West 6.9 mph 16.1 mph N/A   Overcast
12:35 PM 44.6 °F 39.2 °F 24.6 °F 45% 30.27 in 10.0 mi West 10.4 mph - N/A   Overcast
12:54 PM 45.1 °F 40.3 °F 24.4 °F 44% 30.27 in 10.0 mi West 9.2 mph - N/A   Mostly Cloudy
1:15 PM 43.7 °F 38.1 °F 24.3 °F 46% 30.27 in 10.0 mi WNW 10.4 mph - N/A   Mostly Cloudy
1:34 PM 43.9 °F 38.3 °F 23.0 °F 44% 30.27 in 10.0 mi West 10.4 mph - N/A   Overcast
1:55 PM 45.0 °F 40.6 °F 23.5 °F 43% 30.26 in 10.0 mi WNW 8.1 mph - N/A   Overcast
2:14 PM 44.1 °F 40.1 °F 22.6 °F 43% 30.26 in 10.0 mi WNW 6.9 mph - N/A   Overcast
2:34 PM 44.2 °F 39.7 °F 22.8 °F 43% 30.25 in 10.0 mi WNW 8.1 mph - N/A   Mostly Cloudy
2:55 PM 44.4 °F 40.0 °F 20.5 °F 39% 30.25 in 10.0 mi WSW 8.1 mph - N/A   Scattered Clouds
3:14 PM 44.1 °F 41.5 °F 22.5 °F 42% 30.25 in 10.0 mi NW 4.6 mph - N/A   Clear
3:34 PM 45.0 °F - 22.1 °F 40% 30.24 in 10.0 mi Calm Calm - N/A   Clear
3:54 PM 45.5 °F 41.3 °F 21.9 °F 39% 30.25 in 10.0 mi WSW 8.1 mph - N/A   Scattered Clouds
4:15 PM 44.8 °F 39.0 °F 21.0 °F 39% 30.25 in 10.0 mi SW 11.5 mph - N/A   Clear
4:34 PM 44.6 °F 40.7 °F 21.2 °F 39% 30.25 in 10.0 mi WSW 6.9 mph - N/A   Clear
4:55 PM 43.7 °F 41.1 °F 21.9 °F 42% 30.25 in 10.0 mi WSW 4.6 mph - N/A   Clear
5:14 PM 43.2 °F 40.5 °F 21.7 °F 43% 30.25 in 10.0 mi SW 4.6 mph - N/A   Clear
5:35 PM 42.6 °F 39.9 °F 22.1 °F 44% 30.24 in 10.0 mi SW 4.6 mph - N/A   Clear
5:54 PM 41.9 °F 40.0 °F 22.8 °F 47% 30.25 in 10.0 mi SW 3.5 mph - N/A   Clear
6:15 PM 41.2 °F 39.2 °F 23.0 °F 48% 30.25 in 10.0 mi SW 3.5 mph - N/A   Clear
6:34 PM 41.0 °F 38.0 °F 23.2 °F 49% 30.25 in 10.0 mi SW 4.6 mph - N/A   Clear
6:55 PM 40.1 °F 38.0 °F 23.7 °F 52% 30.25 in 10.0 mi SSW 3.5 mph - N/A   Clear
7:14 PM 39.0 °F - 24.3 °F 55% 30.25 in 10.0 mi Calm Calm - N/A   Clear
7:34 PM 38.3 °F 35.9 °F 24.6 °F 58% 30.25 in 10.0 mi SSW 3.5 mph - N/A   Clear
7:55 PM 38.8 °F 36.5 °F 24.6 °F 57% 30.25 in 10.0 mi SSW 3.5 mph - N/A   Clear
8:14 PM 37.0 °F - 25.2 °F 62% 30.24 in 10.0 mi Calm Calm - N/A   Clear
8:35 PM 36.7 °F 34.1 °F 25.5 °F 64% 30.24 in 10.0 mi South 3.5 mph - N/A   Clear
8:54 PM 37.4 °F 34.9 °F 25.7 °F 63% 30.23 in 10.0 mi South 3.5 mph - N/A   Clear
9:15 PM 36.5 °F - 25.9 °F 65% 30.23 in 10.0 mi Calm Calm - N/A   Clear
9:34 PM 36.7 °F - 26.2 °F 66% 30.23 in 10.0 mi Calm Calm - N/A   Scattered Clouds
9:54 PM 37.4 °F 34.9 °F 26.2 °F 64% 30.23 in 10.0 mi SW 3.5 mph - N/A   Scattered Clouds
10:15 PM 37.8 °F 34.2 °F 26.2 °F 63% 30.23 in 10.0 mi SW 4.6 mph - N/A   Scattered Clouds
10:34 PM 38.3 °F 33.9 °F 26.6 °F 63% 30.23 in 10.0 mi SSW 5.8 mph - N/A   Mostly Cloudy
10:55 PM 38.7 °F 34.3 °F 26.8 °F 62% 30.22 in 10.0 mi SSW 5.8 mph - N/A   Overcast
11:15 PM 39.4 °F 37.2 °F 27.1 °F 62% 30.22 in 10.0 mi SSW 3.5 mph - N/A   Overcast
11:34 PM 39.6 °F 37.4 °F 27.3 °F 62% 30.21 in 10.0 mi SW 3.5 mph - N/A   Overcast
11:55 PM 40.1 °F 36.1 °F 27.7 °F 61% 30.20 in 10.0 mi SSW 5.8 mph - N/A   Overcast